TimeEDT,TemperatureF,Dew PointF,Humidity,Sea Level PressureIn,VisibilityMPH,Wind Direction,Wind SpeedMPH,Gust SpeedMPH,PrecipitationIn,Events,Conditions,WindDirDegrees,DateUTC
12:03 AM,46.4,42.8,87,29.94,10.0,East,3.5,-,N/A,,Overcast,80,2012-03-25 04:03:00
12:54 AM,48.0,41.0,77,29.93,10.0,East,9.2,-,N/A,,Overcast,100,2012-03-25 04:54:00
1:54 AM,46.9,42.1,83,29.92,10.0,ENE,6.9,-,N/A,,Overcast,70,2012-03-25 05:54:00
2:54 AM,46.9,42.1,83,29.89,10.0,East,5.8,-,N/A,,Overcast,80,2012-03-25 06:54:00
3:54 AM,46.9,41.0,80,29.87,10.0,ENE,4.6,-,N/A,,Overcast,70,2012-03-25 07:54:00
4:54 AM,46.9,41.0,80,29.86,10.0,Calm,Calm,-,N/A,,Overcast,0,2012-03-25 08:54:00
5:54 AM,46.9,41.0,80,29.86,10.0,East,5.8,-,N/A,,Overcast,80,2012-03-25 09:54:00
6:54 AM,46.9,41.0,80,29.86,10.0,East,5.8,-,N/A,,Overcast,90,2012-03-25 10:54:00
7:44 AM,46.4,42.8,87,29.86,10.0,East,4.6,-,N/A,,Overcast,100,2012-03-25 11:44:00
7:54 AM,46.9,42.1,83,29.87,10.0,ESE,6.9,-,N/A,,Overcast,110,2012-03-25 11:54:00
8:54 AM,48.0,42.1,80,29.87,10.0,East,3.5,-,N/A,,Overcast,100,2012-03-25 12:54:00
9:54 AM,48.9,43.0,80,29.87,10.0,ESE,3.5,-,N/A,,Overcast,120,2012-03-25 13:54:00
10:45 AM,50.0,42.8,76,29.85,10.0,Calm,Calm,-,N/A,,Overcast,0,2012-03-25 14:45:00
10:54 AM,50.0,43.0,77,29.86,10.0,East,3.5,-,N/A,,Overcast,90,2012-03-25 14:54:00
11:54 AM,53.1,45.0,74,29.85,10.0,Calm,Calm,-,N/A,,Overcast,0,2012-03-25 15:54:00
12:05 PM,53.6,44.6,72,29.84,10.0,Calm,Calm,-,N/A,,Overcast,0,2012-03-25 16:05:00
12:54 PM,54.0,44.1,69,29.82,10.0,Calm,Calm,-,N/A,,Overcast,0,2012-03-25 16:54:00
1:01 PM,55.4,44.6,67,29.82,10.0,Calm,Calm,-,N/A,,Overcast,0,2012-03-25 17:01:00
1:17 PM,55.4,44.6,67,29.82,10.0,Calm,Calm,-,N/A,,Overcast,0,2012-03-25 17:17:00
1:31 PM,55.4,44.6,67,29.82,10.0,Calm,Calm,-,N/A,,Overcast,0,2012-03-25 17:31:00
1:54 PM,55.9,45.0,67,29.81,10.0,Calm,Calm,-,N/A,,Overcast,0,2012-03-25 17:54:00
2:54 PM,60.1,46.9,62,29.78,10.0,SE,5.8,-,N/A,,Mostly Cloudy,140,2012-03-25 18:54:00
3:54 PM,62.1,46.9,58,29.77,10.0,West,4.6,-,N/A,,Overcast,270,2012-03-25 19:54:00
4:54 PM,63.0,48.9,60,29.75,10.0,WSW,11.5,-,N/A,,Overcast,240,2012-03-25 20:54:00
5:54 PM,64.0,50.0,60,29.75,10.0,NW,10.4,-,N/A,,Overcast,320,2012-03-25 21:54:00
6:54 PM,61.0,50.0,67,29.79,10.0,NNW,10.4,-,N/A,,Overcast,340,2012-03-25 22:54:00
7:12 PM,60.8,50.0,68,29.79,10.0,NNW,6.9,-,N/A,,Overcast,340,2012-03-25 23:12:00
7:54 PM,60.1,50.0,69,29.80,10.0,NW,4.6,-,N/A,,Overcast,320,2012-03-25 23:54:00
8:10 PM,59.0,50.0,72,29.80,10.0,WNW,8.1,-,N/A,,Overcast,300,2012-03-26 00:10:00
8:54 PM,59.0,48.9,69,29.81,10.0,NW,5.8,-,N/A,,Overcast,320,2012-03-26 00:54:00
9:54 PM,57.9,48.9,72,29.82,10.0,WNW,8.1,-,N/A,,Overcast,300,2012-03-26 01:54:00
10:36 PM,55.4,48.2,77,29.81,10.0,WNW,6.9,-,N/A,,Scattered Clouds,290,2012-03-26 02:36:00
10:54 PM,55.0,46.9,74,29.81,10.0,West,5.8,-,N/A,,Clear,280,2012-03-26 02:54:00
11:54 PM,54.0,46.9,77,29.81,10.0,West,8.1,-,N/A,,Clear,280,2012-03-26 03:54:00